Zurück zum Katalog

COSMOS 2237

AktivMilitärLEO
NORAD 22565·PAYLOAD·🇷🇺 Russia

Gestartet Mar 26, 1993 von Baikonur Cosmodrome

Loading…

Nächste Überflüge (nächste 24 Stunden)

TLE

AktuellSource: Space-Track

Epoche: Sep 14, 2026, 14:02 UTC

1 22565U 93016A   26257.58478069  .00000161  00000-0  11401-3 0  9996
2 22565  70.7622 123.6676 0005913 169.1419 190.9829 14.12388498725972

Verfolge COSMOS 2237 in Echtzeit mit AllMySat

Download on the App Store